Location: Oslo
(59.9170°N, 10.7500°E)
Time: 17:00:28
(UTC+02:00)

ISS - Visible Passes

Search period start: 09 May 2021 00:00
Search period end: 19 May 2021 00:00
Orbit: 418 x 421 km, 51.6° (Epoch: 09 May)

Date Brightness Start Highest point End Pass type
(mag) Time Alt. Az. Time Alt. Az. Time Alt. Az.
09 May -1.7 02:03:26 13° SSE 02:03:26 13° SSE 02:04:47 10° SE visible
09 May -2.2 03:36:27 10° SW 03:39:02 20° S 03:41:36 10° SE visible
10 May -2.2 02:50:23 15° SSW 02:51:47 19° S 02:54:18 10° SE visible
11 May -2.2 02:04:20 18° S 02:04:32 18° SSE 02:06:55 10° ESE visible
11 May -2.2 03:38:04 10° SW 03:40:36 20° S 03:43:07 10° SE visible
12 May -1.8 01:18:15 14° SE 01:18:15 14° SE 01:19:27 10° ESE visible
12 May -2.3 02:51:11 12° SW 02:53:21 20° S 02:55:56 10° SE visible
13 May -2.4 02:05:01 18° SSW 02:06:05 20° S 02:08:40 10° SE visible
13 May -2.1 03:39:56 10° WSW 03:42:07 16° SSW 03:44:18 10° SSE visible
14 May -2.4 01:18:37 19° S 01:18:49 19° S 01:21:21 10° SE visible
14 May -2.2 02:52:29 10° WSW 02:54:53 18° SSW 02:57:17 10° SSE visible
15 May -2.3 00:29:13 10° SSW 00:31:35 18° SSE 00:33:57 10° ESE visible
15 May -2.4 02:05:07 10° SW 02:07:38 20° S 02:10:09 10° SE visible
15 May -2.1 23:42:12 10° SSW 23:44:21 16° SSE 23:46:29 10° ESE visible
16 May -2.4 01:17:48 10° SW 01:20:22 20° S 01:22:57 10° SE visible
16 May -2.0 02:54:33 10° SW 02:56:22 14° SSW 02:58:10 10° S visible
16 May -1.9 22:55:23 10° S 22:57:07 14° SSE 22:58:53 10° SE visible
17 May -2.4 00:30:32 10° SW 00:33:06 20° S 00:35:40 10° SE visible
17 May -2.1 02:06:58 10° WSW 02:09:09 16° SSW 02:11:19 10° SSE visible
17 May -2.3 23:43:20 10° SW 23:45:50 19° S 23:48:20 10° SE visible
18 May -2.3 01:19:30 10° WSW 01:21:54 18° SSW 01:22:54 16° S visible
